{"data":{"norad_id":66097,"intl_designator":"2025-236M","name":"STARLINK-35613","alt_names":[],"object_type":"PAYLOAD","status":"ACTIVE","operator":null,"country":"US","launch_date":"2025-10-19","launch_site_code":"AFWTR","launch_vehicle":null,"mission":null,"orbit_class":"UNKNOWN","rcs_meters":null,"size_class":null,"mass_kg":null,"dimensions":null,"purposes":["comms"],"wikipedia_slug":null,"has_3d_model":false,"image_url":null,"decayed_at":null,"tle_current":{"epoch":"2026-09-20T06:26:51.538848Z","epoch_age_seconds":122989,"freshness":"FRESH","line1":"1 66097U 25236M   26263.26865207  .00009158  00000+0  28185-3 0  9990","line2":"2 66097  53.1596 278.7841 0001849  83.6929 276.4285 15.34400356 52759","mean_motion":15.34400356,"eccentricity":0.0001849,"inclination_deg":53.1596,"raan_deg":278.7841,"arg_perigee_deg":83.6929,"mean_anomaly_deg":276.4285,"bstar":0.00028185,"rev_number":5275,"period_min":93.847736307486,"perigee_km":461.43731093552,"apogee_km":463.96705326506,"semimajor_km":6840.8391821003,"source":"CELESTRAK","updated_at":"2026-09-21T09:00:35.802381Z"}}}